Year,Month,Day,Hour,Minute,Value (Times are PST for windgust in km/hr)
2012,07,02,02,32,1.60
2012,07,02,02,37,1.60
2012,07,02,02,46,1.60
2012,07,02,04,43,1.60
2012,07,02,06,10,1.60
2012,07,02,06,11,1.60
2012,07,02,06,14,1.60
2012,07,02,06,16,1.60
2012,07,02,06,18,1.60
2012,07,02,06,19,3.20
2012,07,02,06,36,1.60
2012,07,02,07,37,1.60
2012,07,02,07,41,1.60
2012,07,02,08,03,1.60
2012,07,02,08,05,1.60
2012,07,02,08,06,1.60
2012,07,02,08,24,1.60
2012,07,02,08,25,1.60
2012,07,02,08,33,1.60
2012,07,02,08,47,1.60
2012,07,02,08,48,1.60
2012,07,02,08,53,3.20
2012,07,02,08,54,1.60
2012,07,02,08,55,3.20
2012,07,02,09,06,1.60
2012,07,02,09,10,3.20
2012,07,02,09,11,1.60
2012,07,02,09,29,1.60
2012,07,02,09,33,1.60
2012,07,02,09,34,1.60
2012,07,02,09,36,1.60
2012,07,02,09,37,1.60
2012,07,02,09,38,3.20
2012,07,02,09,39,3.20
2012,07,02,09,40,1.60
2012,07,02,09,43,1.60
2012,07,02,09,44,3.20
2012,07,02,09,45,1.60
2012,07,02,09,46,4.80
2012,07,02,09,47,3.20
2012,07,02,09,49,1.60
2012,07,02,09,52,3.20
2012,07,02,09,53,1.60
2012,07,02,09,54,1.60
2012,07,02,09,55,1.60
2012,07,02,10,00,1.60
2012,07,02,10,01,1.60
2012,07,02,10,07,1.60
2012,07,02,10,08,1.60
2012,07,02,10,18,3.20
2012,07,02,10,19,3.20
2012,07,02,10,21,1.60
2012,07,02,10,23,1.60
2012,07,02,10,25,3.20
2012,07,02,10,26,3.20
2012,07,02,10,27,1.60
2012,07,02,10,28,4.80
2012,07,02,10,29,1.60
2012,07,02,10,33,3.20
2012,07,02,10,34,1.60
2012,07,02,10,35,3.20
2012,07,02,10,36,3.20
2012,07,02,10,37,4.80
2012,07,02,10,38,1.60
2012,07,02,10,43,1.60
2012,07,02,10,45,1.60
2012,07,02,10,47,3.20
2012,07,02,10,51,3.20
2012,07,02,10,52,4.80
2012,07,02,10,53,3.20
2012,07,02,10,55,1.60
2012,07,02,10,58,1.60
2012,07,02,10,59,1.60
2012,07,02,11,01,1.60
2012,07,02,11,02,1.60
2012,07,02,11,03,1.60
2012,07,02,11,08,1.60
2012,07,02,11,10,3.20
2012,07,02,11,11,4.80
2012,07,02,11,12,3.20
2012,07,02,11,13,1.60
2012,07,02,11,16,1.60
2012,07,02,11,17,1.60
2012,07,02,11,18,3.20
2012,07,02,11,19,1.60
2012,07,02,11,22,1.60
2012,07,02,11,23,1.60
2012,07,02,11,25,3.20
2012,07,02,11,26,3.20
2012,07,02,11,27,1.60
2012,07,02,11,35,1.60
2012,07,02,11,36,3.20
2012,07,02,11,38,1.60
2012,07,02,11,41,3.20
2012,07,02,11,43,4.80
2012,07,02,11,44,3.20
2012,07,02,11,47,3.20
2012,07,02,11,48,1.60
2012,07,02,11,50,3.20
2012,07,02,11,51,3.20
2012,07,02,11,56,4.80
2012,07,02,12,02,4.80
2012,07,02,12,03,4.80
2012,07,02,12,04,1.60
2012,07,02,12,09,1.60
2012,07,02,12,12,1.60
2012,07,02,12,13,1.60
2012,07,02,12,14,3.20
2012,07,02,12,15,3.20
2012,07,02,12,19,1.60
2012,07,02,12,20,4.80
2012,07,02,12,21,3.20
2012,07,02,12,22,1.60
2012,07,02,12,23,1.60
2012,07,02,12,24,4.80
2012,07,02,12,25,3.20
2012,07,02,12,26,6.40
2012,07,02,12,27,4.80
2012,07,02,12,28,4.80
2012,07,02,12,29,1.60
2012,07,02,12,30,4.80
2012,07,02,12,31,1.60
2012,07,02,12,32,1.60
2012,07,02,12,33,6.40
2012,07,02,12,34,4.80
2012,07,02,12,35,1.60
2012,07,02,12,36,4.80
2012,07,02,12,37,1.60
2012,07,02,12,38,3.20
2012,07,02,12,39,4.80
2012,07,02,12,40,4.80
2012,07,02,12,41,1.60
2012,07,02,12,44,3.20
2012,07,02,12,45,4.80
2012,07,02,12,46,1.60
2012,07,02,12,48,1.60
2012,07,02,12,55,3.20
2012,07,02,12,56,3.20
2012,07,02,12,57,1.60
2012,07,02,12,58,4.80
2012,07,02,12,59,6.40
2012,07,02,13,00,1.60
2012,07,02,13,01,1.60
2012,07,02,13,02,3.20
2012,07,02,13,03,1.60
2012,07,02,13,04,4.80
2012,07,02,13,05,1.60
2012,07,02,13,07,1.60
2012,07,02,13,08,4.80
2012,07,02,13,09,4.80
2012,07,02,13,11,1.60
2012,07,02,13,13,1.60
2012,07,02,13,16,6.40
2012,07,02,13,17,3.20
2012,07,02,13,18,1.60
2012,07,02,13,19,1.60
2012,07,02,13,22,1.60
2012,07,02,13,23,1.60
2012,07,02,13,24,4.80
2012,07,02,13,27,1.60
2012,07,02,13,28,1.60
2012,07,02,13,29,1.60
2012,07,02,13,30,1.60
2012,07,02,13,31,4.80
2012,07,02,13,32,3.20
2012,07,02,13,33,4.80
2012,07,02,13,34,1.60
2012,07,02,13,35,3.20
2012,07,02,13,36,3.20
2012,07,02,13,38,1.60
2012,07,02,13,39,4.80
2012,07,02,13,40,6.40
2012,07,02,13,41,1.60
2012,07,02,13,45,4.80
2012,07,02,13,46,3.20
2012,07,02,13,47,4.80
2012,07,02,13,48,3.20
2012,07,02,13,49,6.40
2012,07,02,13,50,4.80
2012,07,02,13,51,1.60
2012,07,02,13,52,6.40
2012,07,02,13,53,6.40
2012,07,02,13,54,6.40
2012,07,02,13,56,6.40
2012,07,02,13,57,9.60
2012,07,02,13,58,8.10
2012,07,02,13,59,6.40
2012,07,02,14,00,4.80
2012,07,02,14,01,3.20
2012,07,02,14,02,1.60
2012,07,02,14,03,3.20
2012,07,02,14,04,3.20
2012,07,02,14,06,8.10
2012,07,02,14,07,11.30
2012,07,02,14,08,9.60
2012,07,02,14,09,4.80
2012,07,02,14,10,4.80
2012,07,02,14,11,4.80
2012,07,02,14,12,3.20
2012,07,02,14,13,11.30
2012,07,02,14,14,6.40
2012,07,02,14,15,6.40
2012,07,02,14,16,1.60
2012,07,02,14,17,1.60
2012,07,02,14,18,1.60
2012,07,02,14,19,1.60
2012,07,02,14,20,4.80
2012,07,02,14,21,14.50
2012,07,02,14,22,11.30
2012,07,02,14,23,8.10
2012,07,02,14,24,4.80
2012,07,02,14,25,8.10
2012,07,02,14,26,9.60
2012,07,02,14,27,11.30
2012,07,02,14,28,8.10
2012,07,02,14,29,6.40
2012,07,02,14,30,6.40
2012,07,02,14,31,4.80
2012,07,02,14,32,3.20
2012,07,02,14,33,3.20
2012,07,02,14,34,3.20
2012,07,02,14,35,4.80
2012,07,02,14,36,6.40
2012,07,02,14,37,6.40
2012,07,02,14,38,4.80
2012,07,02,14,39,8.10
2012,07,02,14,40,9.60
2012,07,02,14,41,11.30
2012,07,02,14,42,6.40
2012,07,02,14,43,8.10
2012,07,02,14,44,4.80
2012,07,02,14,45,6.40
2012,07,02,14,46,8.10
2012,07,02,14,47,9.60
2012,07,02,14,48,1.60
2012,07,02,14,50,6.40
2012,07,02,14,51,9.60
2012,07,02,14,52,9.60
2012,07,02,14,53,8.10
2012,07,02,14,54,3.20
2012,07,02,14,55,4.80
2012,07,02,14,56,6.40
2012,07,02,14,57,11.30
2012,07,02,14,58,11.30
2012,07,02,14,59,8.10
2012,07,02,15,00,14.50
2012,07,02,15,01,17.70
2012,07,02,15,02,8.10
2012,07,02,15,03,6.40
2012,07,02,15,04,4.80
2012,07,02,15,05,1.60
2012,07,02,15,06,4.80
2012,07,02,15,07,3.20
2012,07,02,15,08,4.80
2012,07,02,15,09,8.10
2012,07,02,15,10,1.60
2012,07,02,15,12,6.40
2012,07,02,15,13,4.80
2012,07,02,15,14,4.80
2012,07,02,15,15,9.60
2012,07,02,15,16,11.30
2012,07,02,15,17,17.70
2012,07,02,15,18,9.60
2012,07,02,15,19,11.30
2012,07,02,15,20,11.30
2012,07,02,15,21,9.60
2012,07,02,15,22,9.60
2012,07,02,15,23,6.40
2012,07,02,15,24,9.60
2012,07,02,15,25,8.10
2012,07,02,15,26,4.80
2012,07,02,15,27,6.40
2012,07,02,15,28,4.80
2012,07,02,15,29,4.80
2012,07,02,15,30,4.80
2012,07,02,15,31,6.40
2012,07,02,15,33,1.60
2012,07,02,15,34,11.30
2012,07,02,15,35,9.60
2012,07,02,15,36,4.80
2012,07,02,15,38,1.60
2012,07,02,15,39,4.80
2012,07,02,15,40,8.10
2012,07,02,15,41,9.60
2012,07,02,15,42,8.10
2012,07,02,15,43,6.40
2012,07,02,15,46,6.40
2012,07,02,15,47,1.60
2012,07,02,15,48,8.10
2012,07,02,15,49,9.60
2012,07,02,15,50,6.40
2012,07,02,15,51,11.30
2012,07,02,15,52,9.60
2012,07,02,15,53,1.60
2012,07,02,15,54,6.40
2012,07,02,15,55,9.60
2012,07,02,15,56,3.20
2012,07,02,15,57,9.60
2012,07,02,15,58,4.80
2012,07,02,15,59,1.60
2012,07,02,16,00,3.20
2012,07,02,16,01,6.40
2012,07,02,16,02,6.40
2012,07,02,16,05,4.80
2012,07,02,16,06,11.30
2012,07,02,16,07,9.60
2012,07,02,16,08,8.10
2012,07,02,16,09,4.80
2012,07,02,16,10,4.80
2012,07,02,16,11,8.10
2012,07,02,16,12,11.30
2012,07,02,16,13,11.30
2012,07,02,16,14,11.30
2012,07,02,16,15,6.40
2012,07,02,16,16,3.20
2012,07,02,16,17,8.10
2012,07,02,16,18,8.10
2012,07,02,16,19,8.10
2012,07,02,16,20,3.20
2012,07,02,16,21,3.20
2012,07,02,16,22,4.80
2012,07,02,16,23,6.40
2012,07,02,16,24,8.10
2012,07,02,16,25,1.60
2012,07,02,16,26,3.20
2012,07,02,16,27,9.60
2012,07,02,16,28,3.20
2012,07,02,16,30,6.40
2012,07,02,16,31,6.40
2012,07,02,16,32,6.40
2012,07,02,16,33,6.40
2012,07,02,16,34,6.40
2012,07,02,16,35,11.30
2012,07,02,16,36,8.10
2012,07,02,16,37,8.10
2012,07,02,16,38,4.80
2012,07,02,16,39,6.40
2012,07,02,16,40,6.40
2012,07,02,16,43,3.20
2012,07,02,16,44,6.40
2012,07,02,16,45,3.20
2012,07,02,16,46,6.40
2012,07,02,16,47,9.60
2012,07,02,16,48,8.10
2012,07,02,16,49,1.60
2012,07,02,16,50,3.20
2012,07,02,16,51,8.10
2012,07,02,16,52,1.60
2012,07,02,16,54,4.80
2012,07,02,16,55,6.40
2012,07,02,16,56,4.80
2012,07,02,16,57,8.10
2012,07,02,16,58,4.80
2012,07,02,16,59,9.60
2012,07,02,17,00,12.90
2012,07,02,17,01,11.30
2012,07,02,17,02,1.60
2012,07,02,17,03,8.10
2012,07,02,17,05,1.60
2012,07,02,17,06,4.80
2012,07,02,17,07,4.80
2012,07,02,17,08,3.20
2012,07,02,17,09,1.60
2012,07,02,17,10,3.20
2012,07,02,17,11,4.80
2012,07,02,17,12,1.60
2012,07,02,17,13,1.60
2012,07,02,17,15,1.60
2012,07,02,17,16,1.60
2012,07,02,17,17,3.20
2012,07,02,17,18,3.20
2012,07,02,17,19,1.60
2012,07,02,17,22,4.80
2012,07,02,17,23,1.60
2012,07,02,17,24,8.10
2012,07,02,17,25,6.40
2012,07,02,17,26,8.10
2012,07,02,17,29,1.60
2012,07,02,17,30,1.60
2012,07,02,17,41,1.60
2012,07,02,17,42,1.60
2012,07,02,17,49,1.60
2012,07,02,17,53,1.60
2012,07,02,17,55,1.60
2012,07,02,18,22,1.60
2012,07,02,18,23,3.20
2012,07,02,18,24,1.60
2012,07,02,18,25,1.60
2012,07,02,18,31,1.60
2012,07,02,18,32,1.60
2012,07,02,18,35,1.60
2012,07,02,18,42,1.60
2012,07,02,23,07,1.60
2012,07,02,23,35,3.20
2012,07,02,23,36,1.60
